CZ-6A DEB, 60661

Orbit data source: Space-Track

CZ-6A DEB, 60661 is space debris in LEO originally from a launch on Tue, 06 Aug 2024 UTC launched from the Taiyaun Space Center, China (TSC). Debris objects in space refer to the collection of defunct objects orbiting the Earth. Examples of debris include non-operational satellites, rocket bodies, and fragments generated from explosions, collisions, or faulty payload assembly.

Loading next visibility...
Identifier
60661, 2024-140BN
Orbit
LEO
Country
Flag of CNCN / PRC
Related business
Manufacturer
SAST
Mission
Spacecraft
Bus & Motor
Unknown
Mass
Unknown
Launch date (UTC)
2024-08-06 (2 years ago)
Launch vehicle
Unknown
Launch site
Taiyaun Space Center, China (TSC)
Object type
Payload
Rocket body
Debris
Shape & HBR
Unknown shape, 0.4 m
Radar Cross Section
Medium (>0.1 m² and <1 m²)

Expand to show TLE details & history
Last TLE update: 15 hours ago

TLE from 15 hours ago
0 CZ-6A DEB
1 60661U 24140BN  26171.24639315  .00002611  00000-0  76626-3 0  9990
2 60661  88.8795 261.5727 0041502 276.8676  82.7806 14.43097830 97994
Epoch: 2026-06-20T05:54Z
TLE epoch observation values (Epoch: 2026-06-20T05:54:48.368Z)
Latitude
-0.00002°
Longitude
-95.5926°
Altitude
747.77 km
Speed
7.483 km/s
True Right ascension
17h 26m 17s
True Declination
0° 00' 00"
Sunlit
Object was in full shadow at epoch
Visualization orbit readout
Latitude
Unknown
Longitude
Unknown
Altitude
Unknown
Speed
Unknown
Apparent Right ascension
Unknown
Apparent Declination
Unknown
Sunlit
N/A
Visualization observer readout
Local Sidereal Time
07:23:57
Azimuth
Unknown
Elevation
Unknown
Doppler factor
Unknown
Orbital elements
Apogee altitude
774.764 km
Perigee altitude
715.637 km
Semi-major axis
7,123.337 km
Eccentricity
0.00415
Inclination
88.8795°
RAAN
261.5727°
Arg. of periapsis
276.8676°
True anomaly
83.25271°
Mean anomaly
82.7806°
Eccentric anomaly
83.01662°
Mean motion
3.61009 °/min
Orbital period
99.72 mins
BSTAR
0.00076626
Loading maneuver chart data...
Computing Atmospheric mass density...
Loading historical data...
Loading historical data...
Loading historical data...
Loading historical data...
Loading historical data...
Loading historical data...
Loading historical data...

Documentation

Showing up to 5 results
|